NETSAT-1 (46506 NORAD) Tracking and Keplerian Element Data

This shows tracking and keplerian element data for the satellite.

Feedback or suggestion? Click here.




ElementValue
Catalog46506
NameNETSAT-1
Epoch Orbit984
Epoch Day338.57684292
Epoch Year2020
RAAN271.2812
Inclination97.6676
Eccentricity0.0010965
Argument of Perigee43.7292
Mean Anonmoly316.4824
Mean Motion15.0179545
Decay Rate1.639E-05
L11 46506U 20068W 20338.57684292 .00001639 00000-0 13025-3 0 9999
L22 46506 97.6676 271.2812 0010965 43.7292 316.4824 15.01795450 9841

Live tracking and technical data element details for NETSAT-1 (NORAD 46506). NETSAT-1 can be tracked NOW for your location showing map with azimuth and elevation plus other details from your city location.

Track the satellite on the map from your city or location and see movement details for azimuth, elevation, latitude, longitude, range, height, and movement on the map or in text.







IsCatalogInMostPopularTable: catalog: 46506, numindb: 17
Update: records affected: 1



GetName: 46506 NETSAT-1

Hit Count: updated at: Sun, 06 Dec 2020 01:04:48 GMT